Content
SEND FEEDBACK

Daily
Averages
Monthly
Summary
Canada

SASKATOON, SASKATCHEWAN


Home > North America > Canada > Saskatchewan
Elevation: 1653 feet     Latitude: 52 10N     Longitude: 106 41W

WEATHER
 
SELECT A DAY
Number of Records: 187,123;   Date Range: 1/1/95 - 7/28/14
 
SHARE

PRINT THIS DATA

[ ← Previous Day ]
WEATHER ALMANAC - APRIL 20, 2013
[ Next Day → ]
[ °C ]   °F
Weather ElementAverageHighLow
Temperature32.9 °F39.2 °F (3:00 pm)30.2 °F (1:00 am)
Dewpoint28.9 °F33.8 °F (5:00 pm)19.4 °F (1:00 am)
Humidity85.4 %100 % (7:26 pm)64 % (1:00 am)
Barometer29.90 in29.98 in (1:00 am)29.85 in (2:00 pm)
Wind Speed11.8 mph18.4 mph (8:43 am)
Wind Gust24.2 mph (1:00 am)
Weather ElementAverage
Visibility13.2 mi
Wind DirectionSSW (219 °)

Weather ElementTotal
Precipitation---
Heating Degree Days30.3 (Base 65)
Averaged from 31 records on April 20, 2013
WEATHER CONDITIONS BREAKOUT
WIND DIRECTION BREAKOUT
WEATHER BY HOUR - APRIL 20, 2013
[ °C ]   °F
Local TimeTemperatureDewpointHumidityBarometerVisibilityWind DirectionWind SpeedGust SpeedPrecipitationEventsConditions
1:00 AM30.2 °F19.4 °F64 %29.98 in15.0 miSSE (150°)17.3 mph24.2 mphOvercast
2:00 AM30.2 °F21.2 °F69 %29.96 in15.0 miSSE (150°)15.0 mph21.9 mphOvercast
3:00 AM30.2 °F21.2 °F69 %29.95 in15.0 miSouth (170°)13.8 mphOvercast
4:00 AM30.2 °F23.0 °F75 %29.92 in15.0 miSSE (150°)11.5 mphOvercast
5:00 AM30.2 °F24.8 °F80 %29.91 in15.0 miSSE (160°)12.7 mphOvercast
6:00 AM30.2 °F26.6 °F86 %29.91 in15.0 miSSE (160°)17.3 mph24.2 mphOvercast
6:47 AM30.2 °F26.6 °F86 %29.89 in15.0 miSSE (160°)17.3 mph23.0 mphOvercast
7:00 AM30.2 °F26.6 °F86 %29.90 in15.0 miSSE (160°)17.3 mphOvercast
7:48 AM30.2 °F26.6 °F86 %29.89 in15.0 miSouth (170°)15.0 mph21.9 mphSnowLight Snow
8:00 AM30.2 °F28.4 °F93 %29.90 in15.0 miSouth (170°)13.8 mph23.0 mphSnowLight Snow
8:43 AM30.2 °F28.4 °F93 %29.88 in15.0 miSouth (170°)18.4 mphOvercast
9:00 AM32.0 °F28.4 °F87 %29.88 in15.0 miSouth (170°)17.3 mphOvercast
10:00 AM32.0 °F28.4 °F87 %29.88 in15.0 miSouth (180°)12.7 mph21.9 mphOvercast
11:00 AM33.8 °F30.2 °F87 %29.87 in15.0 miSouth (170°)16.1 mphOvercast
12:00 PM35.6 °F30.2 °F81 %29.87 in15.0 miSouth (190°)11.5 mphOvercast
1:00 PM35.6 °F30.2 °F81 %29.86 in15.0 miSouth (180°)10.4 mphOvercast
2:00 PM37.4 °F32.0 °F81 %29.85 in15.0 miSouth (180°)8.1 mphOvercast
3:00 PM39.2 °F32.0 °F75 %29.86 in15.0 miSouth (190°)4.6 mphOvercast
4:00 PM37.4 °F32.0 °F81 %29.86 in15.0 miWest (260°)5.8 mphOvercast
4:17 PM37.4 °F32.0 °F81 %29.87 in15.0 miWest (270°)5.8 mphRainLight Rain Showers
5:00 PM35.6 °F33.8 °F93 %29.87 in15.0 miWNW (290°)4.6 mphRainLight Rain Showers
5:35 PM35.6 °F33.8 °F93 %29.88 in10.0 miNW (310°)9.2 mphRainLight Rain Showers
6:00 PM33.8 °F32.0 °F93 %29.89 in3.0 miNW (310°)10.4 mphRainLight Rain
6:39 PM33.8 °F32.0 °F93 %29.90 in6.0 miNW (320°)9.2 mphRainLight Rain
7:00 PM33.8 °F32.0 °F93 %29.90 in3.0 miWNW (300°)10.4 mphRain-SnowRain
7:26 PM32.0 °F32.0 °F100 %29.90 in1.0 miWNW (300°)9.2 mphRain-SnowLight Rain
7:50 PM32.0 °F32.0 °F100 %29.91 in10.0 miWNW (290°)5.8 mphMostly Cloudy
8:00 PM32.0 °F32.0 °F100 %29.91 in15.0 miWest (270°)5.8 mphMostly Cloudy
9:00 PM33.8 °F32.0 °F93 %29.92 in15.0 miWest (280°)10.4 mphMostly Cloudy
10:00 PM33.8 °F28.4 °F81 %29.93 in15.0 miWNW (290°)17.3 mph24.2 mphOvercast
11:00 PM32.0 °F26.6 °F80 %29.94 in15.0 miWest (270°)11.5 mphMostly Cloudy
Hourly data recorded from CYXE, located miles away from Saskatoon, Saskatchewan







STORIES FROM OUR PARTNERS